Location: Trebic
(49.2170°N, 15.8830°E)
Time: 03:41:21
(UTC+02:00)

Transit 2A Rocket - Pass Details

Date: 25 July 2019
Orbit: 590 x 913 km, 66.7° (Epoch: 20 August)

Event Time Altitude Azimuth Distance (km) Brightness Sun altitude
Rises 04:30:54 0° 240° (WSW) 3,498 - -7.1°
Exits shadow 04:32:52 - 245° (WSW) 2,797 7.3 -6.8°
Reaches altitude 10° 04:33:38 10° 247° (WSW) 2,532 7.1 -6.7°
Maximum altitude 04:39:08 40° 317° (NW) 1,216 6.0 -6.1°
Drops below altitude 10° 04:44:18 10° 27° (NNE) 2,364 8.8 -5.4°
Sets 04:46:46 0° 35° (NE) 3,243 10.0 -5.1°
